TimeEST,TemperatureF,Dew PointF,Humidity,Sea Level PressureIn,VisibilityMPH,Wind Direction,Wind SpeedMPH,Gust SpeedMPH,PrecipitationIn,Events,Conditions,WindDirDegrees,DateUTC
12:53 AM,46.9,42.1,83,30.29,9.0,Calm,Calm,-,N/A,,Clear,0,2012-12-02 05:53:00
1:53 AM,46.0,41.0,83,30.29,9.0,Calm,Calm,-,N/A,,Clear,0,2012-12-02 06:53:00
2:53 AM,45.0,41.0,86,30.29,9.0,Calm,Calm,-,N/A,,Clear,0,2012-12-02 07:53:00
3:53 AM,46.0,42.1,86,30.30,10.0,Calm,Calm,-,N/A,,Clear,0,2012-12-02 08:53:00
4:53 AM,43.0,39.0,86,30.29,10.0,Calm,Calm,-,N/A,,Clear,0,2012-12-02 09:53:00
5:53 AM,39.0,37.0,93,30.31,8.0,NNE,4.6,-,N/A,,Partly Cloudy,20,2012-12-02 10:53:00
6:53 AM,39.9,37.9,93,30.32,7.0,Calm,Calm,-,N/A,,Partly Cloudy,0,2012-12-02 11:53:00
7:53 AM,41.0,39.0,93,30.33,7.0,Calm,Calm,-,N/A,,Partly Cloudy,0,2012-12-02 12:53:00
8:53 AM,46.9,44.1,90,30.33,7.0,Calm,Calm,-,N/A,,Scattered Clouds,0,2012-12-02 13:53:00
9:53 AM,46.0,42.1,86,30.33,7.0,Calm,Calm,-,N/A,,Scattered Clouds,0,2012-12-02 14:53:00
10:53 AM,53.1,46.0,77,30.33,9.0,Calm,Calm,-,N/A,,Scattered Clouds,0,2012-12-02 15:53:00
11:53 AM,61.0,48.9,64,30.29,10.0,SW,4.6,-,N/A,,Partly Cloudy,220,2012-12-02 16:53:00
12:53 PM,68.0,48.9,50,30.25,10.0,SW,20.7,-,N/A,,Scattered Clouds,230,2012-12-02 17:53:00
1:53 PM,69.1,48.9,49,30.23,10.0,SW,16.1,-,N/A,,Partly Cloudy,230,2012-12-02 18:53:00
2:53 PM,69.1,48.9,49,30.21,10.0,SW,16.1,-,N/A,,Partly Cloudy,220,2012-12-02 19:53:00
3:53 PM,66.9,48.9,52,30.21,10.0,SW,11.5,-,N/A,,Partly Cloudy,230,2012-12-02 20:53:00
4:53 PM,64.9,48.0,54,30.21,10.0,SW,12.7,-,N/A,,Scattered Clouds,230,2012-12-02 21:53:00
5:53 PM,61.0,46.9,60,30.22,10.0,SW,8.1,-,N/A,,Mostly Cloudy,230,2012-12-02 22:53:00
6:53 PM,62.6,48.2,59,30.22,10.0,SSW,10.4,-,N/A,,Mostly Cloudy,200,2012-12-02 23:53:00
7:53 PM,57.9,46.9,67,30.25,10.0,SW,6.9,-,N/A,,Partly Cloudy,230,2012-12-03 00:53:00
8:53 PM,55.9,46.9,72,30.24,10.0,SSW,8.1,-,N/A,,Partly Cloudy,210,2012-12-03 01:53:00
9:53 PM,57.0,46.9,69,30.24,10.0,SW,4.6,-,N/A,,Partly Cloudy,230,2012-12-03 02:53:00
10:53 PM,55.0,46.0,72,30.24,10.0,WSW,6.9,-,N/A,,Scattered Clouds,240,2012-12-03 03:53:00
11:53 PM,55.0,46.9,74,30.25,10.0,WSW,9.2,-,N/A,,Scattered Clouds,250,2012-12-03 04:53:00